ASA447 KSEA-KGEG

Flight info

Callsign ASA447
Flight time 0h 37m
Altitude 29000
Route MONTN2 SEA ZADON ZELAK ZIRAN ZOOMR
Aircraft E75L/M-SDE3GILORVW/S

Departure

Time 2026-05-05 14:03
Airport Seattle–Tacoma International Airport (KSEA)

Arrival

Time 2026-05-05 14:41
Airport Spokane International Airport (KGEG)
Time Latitude Longitude Altitude Speed Heading
2026-05-05 13:42 47.44603 -122.30291 401 ft 0 kts 277°
2026-05-05 13:54 47.44602 -122.30276 401 ft 4 kts 275°
2026-05-05 13:55 47.44602 -122.30236 401 ft 4 kts 258°
2026-05-05 13:55 47.44615 -122.30207 398 ft 4 kts 197°
2026-05-05 13:55 47.44640 -122.30197 401 ft 4 kts 210°
2026-05-05 13:55 47.44656 -122.30168 402 ft 4 kts 254°
2026-05-05 13:56 47.44658 -122.30152 402 ft 2 kts 264°
2026-05-05 13:58 47.44658 -122.30175 402 ft 6 kts 270°
2026-05-05 13:58 47.44691 -122.30279 403 ft 13 kts 323°
2026-05-05 13:58 47.44760 -122.30372 404 ft 14 kts 310°
2026-05-05 13:59 47.44836 -122.30630 404 ft 11 kts 358°
2026-05-05 13:59 47.44874 -122.30627 405 ft 10 kts
2026-05-05 14:00 47.45137 -122.30626 411 ft 21 kts
2026-05-05 14:00 47.45232 -122.30625 418 ft 20 kts
2026-05-05 14:00 47.45402 -122.30623 418 ft 17 kts
2026-05-05 14:00 47.45521 -122.30622 423 ft 17 kts
2026-05-05 14:01 47.45636 -122.30622 430 ft 17 kts
2026-05-05 14:01 47.45775 -122.30620 433 ft 23 kts
2026-05-05 14:01 47.45938 -122.30617 433 ft 24 kts
2026-05-05 14:01 47.46105 -122.30615 430 ft 25 kts
2026-05-05 14:02 47.46281 -122.30613 435 ft 26 kts 359°
2026-05-05 14:02 47.46376 -122.30702 440 ft 16 kts 258°
2026-05-05 14:02 47.46281 -122.30778 432 ft 18 kts 183°
2026-05-05 14:02 47.46061 -122.30782 429 ft 66 kts 180°
2026-05-05 14:03 47.45301 -122.30787 424 ft 149 kts 181°
2026-05-05 14:03 47.44136 -122.30796 1014 ft 182 kts 182°
2026-05-05 14:03 47.42775 -122.30906 2059 ft 194 kts 183°
2026-05-05 14:03 47.41509 -122.30959 3143 ft 181 kts 181°
2026-05-05 14:04 47.40172 -122.30965 3579 ft 207 kts 180°
2026-05-05 14:04 47.38653 -122.30959 4138 ft 228 kts 180°
2026-05-05 14:04 47.37008 -122.30886 4750 ft 245 kts 170°
2026-05-05 14:04 47.35442 -122.29746 5355 ft 262 kts 137°
2026-05-05 14:05 47.34480 -122.27438 6043 ft 272 kts 105°
2026-05-05 14:05 47.34460 -122.24661 6831 ft 275 kts 75°
2026-05-05 14:05 47.35113 -122.21999 7563 ft 278 kts 66°
2026-05-05 14:05 47.35951 -122.19413 8253 ft 281 kts 63°
2026-05-05 14:06 47.36861 -122.16833 8940 ft 284 kts 62°
2026-05-05 14:06 47.37827 -122.14270 9614 ft 287 kts 58°
2026-05-05 14:06 47.38927 -122.11782 10189 ft 295 kts 56°
2026-05-05 14:06 47.40104 -122.09200 10530 ft 310 kts 56°
2026-05-05 14:07 47.41329 -122.06533 11061 ft 316 kts 56°
2026-05-05 14:07 47.42553 -122.03865 11693 ft 319 kts 56°
2026-05-05 14:07 47.43804 -122.01133 12342 ft 323 kts 56°
2026-05-05 14:07 47.45067 -121.98371 13006 ft 326 kts 56°
2026-05-05 14:08 47.46345 -121.95574 13663 ft 330 kts 56°
2026-05-05 14:08 47.47637 -121.92745 14369 ft 334 kts 56°
2026-05-05 14:08 47.48945 -121.89876 15100 ft 337 kts 56°
2026-05-05 14:08 47.50262 -121.86986 15805 ft 340 kts 56°
2026-05-05 14:09 47.51594 -121.84057 16489 ft 344 kts 56°
2026-05-05 14:09 47.52937 -121.81102 17173 ft 347 kts 56°
2026-05-05 14:09 47.54250 -121.78091 17818 ft 351 kts 62°
2026-05-05 14:09 47.55150 -121.74713 18488 ft 355 kts 73°
2026-05-05 14:10 47.55697 -121.71135 19175 ft 358 kts 80°
2026-05-05 14:10 47.56045 -121.67451 19808 ft 365 kts 86°
2026-05-05 14:10 47.56074 -121.63675 20487 ft 369 kts 90°
2026-05-05 14:10 47.56052 -121.59901 21151 ft 374 kts 91°
2026-05-05 14:11 47.56002 -121.56035 21838 ft 377 kts 91°
2026-05-05 14:11 47.55947 -121.52143 22524 ft 379 kts 91°
2026-05-05 14:11 47.55891 -121.48208 23026 ft 386 kts 91°
2026-05-05 14:11 47.55834 -121.44219 23614 ft 389 kts 91°
2026-05-05 14:12 47.55774 -121.40196 24185 ft 392 kts 91°
2026-05-05 14:12 47.55712 -121.36121 24696 ft 397 kts 91°
2026-05-05 14:12 47.55649 -121.32022 25204 ft 401 kts 91°
2026-05-05 14:12 47.55606 -121.29278 25530 ft 404 kts 91°
2026-05-05 14:13 47.55539 -121.25100 26012 ft 407 kts 91°
2026-05-05 14:13 47.55470 -121.20884 26486 ft 410 kts 91°
2026-05-05 14:13 47.55399 -121.16645 26926 ft 414 kts 91°
2026-05-05 14:13 47.55325 -121.12358 27363 ft 417 kts 91°
2026-05-05 14:14 47.55251 -121.08064 27875 ft 418 kts 91°
2026-05-05 14:14 47.55173 -121.03737 28226 ft 421 kts 91°
2026-05-05 14:14 47.55094 -120.99374 28531 ft 426 kts 91°
2026-05-05 14:14 47.55012 -120.95013 28847 ft 416 kts 91°
2026-05-05 14:15 47.54907 -120.89499 28934 ft 401 kts 91°
2026-05-05 14:15 47.54854 -120.86733 28971 ft 409 kts 91°
2026-05-05 14:15 47.54770 -120.82461 29007 ft 420 kts 91°
2026-05-05 14:15 47.54682 -120.78103 29016 ft 423 kts 92°
2026-05-05 14:16 47.54502 -120.69405 28998 ft 420 kts 92°
2026-05-05 14:16 47.54318 -120.60788 29002 ft 420 kts 92°
2026-05-05 14:17 47.54126 -120.52132 29002 ft 420 kts 92°
2026-05-05 14:17 47.53949 -120.43448 29001 ft 421 kts 93°
2026-05-05 14:18 47.53577 -120.34753 29003 ft 425 kts 94°
2026-05-05 14:18 47.53182 -120.26097 29004 ft 420 kts 94°
2026-05-05 14:19 47.52780 -120.17450 28995 ft 425 kts 94°
2026-05-05 14:19 47.52371 -120.08750 29008 ft 424 kts 94°
2026-05-05 14:20 47.51953 -120.00028 28996 ft 424 kts 94°
2026-05-05 14:20 47.51532 -119.91352 29006 ft 422 kts 94°
2026-05-05 14:21 47.51106 -119.82691 28998 ft 422 kts 94°
2026-05-05 14:21 47.50672 -119.74031 29002 ft 421 kts 94°
2026-05-05 14:22 47.50236 -119.65443 29001 ft 422 kts 94°
2026-05-05 14:22 47.49789 -119.56780 29001 ft 422 kts 94°
2026-05-05 14:23 47.49336 -119.48127 28520 ft 421 kts 94°
2026-05-05 14:23 47.49107 -119.43802 28019 ft 425 kts 95°
2026-05-05 14:23 47.48874 -119.39429 27523 ft 426 kts 94°
2026-05-05 14:24 47.48640 -119.35078 27026 ft 423 kts 95°
2026-05-05 14:24 47.48407 -119.30752 26526 ft 419 kts 95°
2026-05-05 14:24 47.48174 -119.26479 26026 ft 416 kts 95°
2026-05-05 14:24 47.47941 -119.22228 25525 ft 412 kts 95°
2026-05-05 14:25 47.47709 -119.18024 25026 ft 409 kts 95°
2026-05-05 14:25 47.47477 -119.13849 24527 ft 406 kts 95°
2026-05-05 14:25 47.47245 -119.09705 24027 ft 403 kts 95°
2026-05-05 14:25 47.47017 -119.05645 23534 ft 400 kts 95°
2026-05-05 14:26 47.46786 -119.01569 23034 ft 397 kts 95°
2026-05-05 14:26 47.46555 -118.97523 22534 ft 393 kts 95°
2026-05-05 14:26 47.46325 -118.93500 22033 ft 391 kts 95°
2026-05-05 14:26 47.46095 -118.89515 21533 ft 388 kts 95°
2026-05-05 14:27 47.45865 -118.85555 21032 ft 385 kts 95°
2026-05-05 14:27 47.45636 -118.81625 20532 ft 382 kts 95°
2026-05-05 14:27 47.45407 -118.77736 20032 ft 379 kts 95°
2026-05-05 14:27 47.45178 -118.73859 19530 ft 376 kts 95°
2026-05-05 14:28 47.44950 -118.70018 19030 ft 374 kts 95°
2026-05-05 14:28 47.44724 -118.66252 18531 ft 371 kts 95°
2026-05-05 14:28 47.44497 -118.62468 18035 ft 368 kts 95°
2026-05-05 14:28 47.44270 -118.58717 17534 ft 365 kts 95°
2026-05-05 14:29 47.44044 -118.54992 17038 ft 363 kts 95°
2026-05-05 14:29 47.43818 -118.51295 16533 ft 360 kts 95°
2026-05-05 14:29 47.43593 -118.47623 16032 ft 357 kts 95°
2026-05-05 14:29 47.43367 -118.43982 15531 ft 355 kts 95°
2026-05-05 14:30 47.43143 -118.40369 15030 ft 352 kts 95°
2026-05-05 14:30 47.42929 -118.36782 14529 ft 349 kts 93°
2026-05-05 14:30 47.43212 -118.33245 14018 ft 347 kts 76°
2026-05-05 14:30 47.43860 -118.29828 13523 ft 344 kts 71°
2026-05-05 14:31 47.44815 -118.26605 13021 ft 342 kts 63°
2026-05-05 14:31 47.45914 -118.23503 12532 ft 339 kts 61°
2026-05-05 14:31 47.47039 -118.20457 12031 ft 336 kts 62°
2026-05-05 14:31 47.47727 -118.17224 11345 ft 335 kts 84°
2026-05-05 14:32 47.47538 -118.13872 10515 ft 323 kts 103°
2026-05-05 14:32 47.46961 -118.10696 9687 ft 315 kts 106°
2026-05-05 14:32 47.46334 -118.07634 8858 ft 309 kts 107°
2026-05-05 14:32 47.45696 -118.04643 8024 ft 300 kts 108°
2026-05-05 14:33 47.45064 -118.01773 7180 ft 286 kts 108°
2026-05-05 14:33 47.44451 -117.99029 6341 ft 277 kts 108°
2026-05-05 14:33 47.43852 -117.96363 5496 ft 270 kts 108°
2026-05-05 14:33 47.43272 -117.93789 4962 ft 255 kts 109°
2026-05-05 14:34 47.42729 -117.91375 4738 ft 244 kts 108°
2026-05-05 14:34 47.42209 -117.89032 4561 ft 236 kts 108°
2026-05-05 14:34 47.41759 -117.86736 4477 ft 237 kts 100°
2026-05-05 14:34 47.41896 -117.84336 4412 ft 238 kts 68°
2026-05-05 14:35 47.42800 -117.82435 4449 ft 214 kts 46°
2026-05-05 14:35 47.43835 -117.80892 4451 ft 200 kts 47°
2026-05-05 14:35 47.44729 -117.79457 4420 ft 182 kts 47°
2026-05-05 14:35 47.45621 -117.78127 4422 ft 183 kts 45°
2026-05-05 14:36 47.46523 -117.76788 4425 ft 184 kts 45°
2026-05-05 14:36 47.47419 -117.75427 4445 ft 185 kts 45°
2026-05-05 14:36 47.48325 -117.74079 4445 ft 185 kts 45°
2026-05-05 14:36 47.49229 -117.72729 4432 ft 184 kts 45°
2026-05-05 14:37 47.50126 -117.71379 4444 ft 184 kts 45°
2026-05-05 14:37 47.51017 -117.70043 4447 ft 185 kts 45°
2026-05-05 14:37 47.51922 -117.68691 4443 ft 184 kts 45°
2026-05-05 14:37 47.52821 -117.67337 4447 ft 184 kts 45°
2026-05-05 14:38 47.53721 -117.65985 4430 ft 185 kts 45°
2026-05-05 14:38 47.54632 -117.64624 4197 ft 184 kts 45°
2026-05-05 14:38 47.55519 -117.63272 3951 ft 182 kts 45°
2026-05-05 14:38 47.56406 -117.61943 3705 ft 177 kts 44°
2026-05-05 14:39 47.57239 -117.60697 3466 ft 162 kts 45°
2026-05-05 14:39 47.58002 -117.59545 3244 ft 153 kts 45°
2026-05-05 14:39 47.58742 -117.58423 3053 ft 153 kts 46°
2026-05-05 14:39 47.59485 -117.57282 2845 ft 154 kts 45°
2026-05-05 14:40 47.60240 -117.56160 2630 ft 153 kts 44°
2026-05-05 14:40 47.60979 -117.55054 2428 ft 152 kts 45°
2026-05-05 14:40 47.61690 -117.53987 2375 ft 133 kts 45°
2026-05-05 14:40 47.62128 -117.53320 2372 ft 55 kts 46°
2026-05-05 14:41 47.62410 -117.53098 2373 ft 42 kts 13°
2026-05-05 14:41 47.62522 -117.53100 2373 ft 9 kts 278°
2026-05-05 14:41 47.62489 -117.53186 2373 ft 11 kts 225°
2026-05-05 14:41 47.62431 -117.53274 2373 ft 13 kts 226°
2026-05-05 14:42 47.62364 -117.53378 2373 ft 15 kts 228°
2026-05-05 14:42 47.62285 -117.53492 2372 ft 17 kts 223°
2026-05-05 14:42 47.62199 -117.53625 2372 ft 16 kts 226°
2026-05-05 14:42 47.62202 -117.53721 2372 ft 11 kts 316°
2026-05-05 14:43 47.62260 -117.53807 2372 ft 12 kts 310°
2026-05-05 14:43 47.62268 -117.53896 2372 ft 9 kts 274°
2026-05-05 14:43 47.62307 -117.53928 2372 ft 8 kts
2026-05-05 14:43 47.62339 -117.53928 2372 ft 0 kts